Temperature
13 13 13 13 13 13 14 14 14 14 14 14 14 14 14 15 15 15 15 15 15 15 15 15 15 15 15 15 15 15 15 15 15 15 15 15 15 15 15 15 15 15 15
12 13 13 13 13 13 13 14 14 14 14 14 14 14 14 15 15 15 15 15 15 15 15 15 15 15 15 15 15 15 15 15 15 15 15 15 15 15 15 15 15 15 15
12 12 13 13 13 13 13 13 13 14 14 13 14 14 14 14 14 14 14 14 14 15 15 15 15 15 15 15 15 15 15 15 15 15 15 15 15 15 15 14 14 14 15
12 12 12 13 13 13 13 13 13 13 13 13 13 14 14 14 14 14 14 14 14 14 14 14 14 14 14 14 15 14 14 14 14 14 14 14 14 14 14 14 14 14 14
12 12 12 12 13 13 13 13 13 13 13 13 13 13 13 13 13 13 13 14 14 14 14 14 14 14 14 14 14 14 14 14 14 14 14 14 14 14 14 14 14 14 14
11 12 12 12 12 12 12 13 13 13 13 13 13 13 13 13 13 13 13 13 13 13 14 14 14 14 14 14 14 14 14 14 14 14 14 14 14 14 14 14 14 14 14
11 12 12 12 12 12 12 12 12 13 13 13 13 13 13 13 13 13 13 13 13 13 13 13 13 13 14 14 14 14 14 14 14 14 13 14 14 14 14 14 14 14 14
11 11 11 11 11 12 12 12 12 12 12 12 12 12 13 12 12 12 12 12 12 12 13 13 13 13 13 13 13 13 13 13 13 13 13 13 13 13 13 13 13 13 13
11 11 11 11 11 11 11 12 12 12 12 12 12 12 12 12 12 12 12 12 12 12 12 12 12 13 13 13 13 13 13 13 13 13 13 13 13 13 13 13 13 13 13
11 11 11 11 11 11 11 11 11 11 11 11 11 12 12 12 11 11 12 12 12 12 12 12 12 12 12 12 12 12 12 13 13 13 12 12 12 12 12 13 13 13 13
10 10 10 10 10 11 11 11 11 11 11 11 11 11 11 11 11 11 11 11 11 11 11 11 11 12 11 11 12 12 12 12 12 12 12 12 12 12 12 12 12 12 12
10 10 10 10 10 10 10 10 10 11 11 11 10 10 11 10 10 10 10 11 11 11 11 11 11 11 11 11 11 11 11 11 12 12 11 11 11 12 12 12 12 12 12
9 9 9 9 10 10 10 10 10 10 10 10 10 10 10 10 10 10 10 10 10 10 10 10 10 10 10 10 10 10 11 11 11 11 11 11 11 11 11 11 11 11 11
9 9 9 9 9 9 10 10 9 9 9 10 9 9 10 10 10 9 10 10 10 10 10 10 10 9 10 10 10 10 10 10 10 10 11 11 11 11 11 11 11 11 11
8 8 8 8 9 9 9 9 9 9 9 9 9 9 9 9 9 9 9 9 9 9 9 9 9 9 9 9 9 9 9 10 10 10 10 10 10 10 10 10 10 10 10
8 8 8 8 8 8 8 8 8 8 8 8 8 8 8 8 8 8 8 8 8 8 8 8 8 8 8 8 8 8 9 9 9 9 9 9 10 10 10 10 10 10 10
7 7 8 8 8 8 8 8 8 8 8 8 8 8 8 8 8 8 8 8 8 8 8 8 8 7 7 8 8 8 8 8 8 9 9 9 9 9 9 9 9 9 9
7 7 7 7 7 7 7 7 7 7 7 7 7 7 7 7 7 7 7 7 7 7 7 7 7 7 7 7 7 7 7 8 8 8 8 8 8 8 9 9 9 9 9
7 7 7 7 6 6 6 6 6 6 6 6 6 6 6 6 6 6 6 6 6 6 6 6 6 6 6 6 6 7 7 7 7 8 8 8 8 8 8 8 8 8 8
6 6 6 6 6 6 6 6 6 6 5 5 5 5 5 5 5 5 5 5 5 6 6 6 6 6 6 6 6 6 6 7 7 7 7 7 7 7 7 7 8 8 8
6 6 6 5 5 5 5 5 5 5 5 5 5 5 5 5 5 5 4 5 5 5 5 5 5 5 5 5 5 5 6 6 6 6 6 6 6 7 7 7 7 7 7
5 5 5 5 5 5 5 5 4 4 4 4 4 4 4 4 4 4 4 4 4 4 4 4 4 4 4 4 4 4 4 5 5 5 5 6 6 6 6 6 6 6 7
5 5 5 5 4 4 4 4 4 4 4 3 3 4 3 3 3 3 3 3 3 3 3 3 3 3 3 3 3 3 3 4 4 4 5 5 5 5 5 5 5 6 6
4 4 4 4 4 4 4 4 4 3 3 3 3 3 3 3 3 3 3 3 3 3 3 3 2 3 3 3 3 3 3 3 3 3 3 4 4 4 5 5 5 5 5
4 4 4 4 4 3 3 3 3 3 3 3 2 2 2 2 2 2 2 2 2 2 2 2 2 2 2 2 2 2 2 2 2 2 3 3 3 4 4 4 4 4 4
3 3 3 3 3 3 3 3 3 2 2 2 2 2 2 2 2 2 2 2 2 1 2 1 2 2 2 2 2 2 2 2 2 2 2 2 2 3 3 3 3 4 4
Wind_Speed
4 7 8 9 9 9 9 9 9 9 9 10 10 10 11 11 11 10 11 10 11 11 10 10 11 10 10 10 10 10 9 10 9 9 9 9 10 10 10 10 9 9 10
4 8 9 10 9 9 10 10 10 9 10 10 10 11 11 11 11 11 11 11 11 11 11 10 10 11 10 10 9 9 9 9 8 8 8 8 8 9 9 9 8 8 9
7 9 9 10 10 11 11 11 11 10 10 10 10 10 11 11 11 12 12 12 12 11 11 11 11 11 11 10 9 9 8 7 7 7 7 6 6 8 8 8 8 8 8
8 9 8 10 10 11 11 12 12 11 11 10 10 10 10 10 11 11 11 12 12 11 11 11 11 11 11 10 9 8 7 6 6 5 5 5 6 7 7 7 7 7 7
8 9 9 9 10 11 11 12 12 11 10 10 10 9 9 9 10 10 10 11 11 11 11 11 11 11 11 10 9 8 7 7 6 5 5 6 6 6 6 6 6 6 6
8 10 9 9 9 10 10 11 11 11 10 10 9 9 9 9 9 9 9 10 10 11 11 11 11 10 10 9 9 9 8 7 6 5 5 6 6 5 5 5 5 5 5
7 9 8 9 9 9 9 9 10 10 10 10 9 8 8 8 8 8 8 9 9 9 9 10 10 10 9 9 9 9 9 8 6 5 5 5 5 4 4 4 4 4 4
7 8 8 8 9 9 8 8 9 9 9 9 9 9 8 8 7 8 8 8 8 8 8 8 8 9 8 8 9 9 8 8 6 5 6 6 5 4 3 3 3 3 3
8 8 7 7 8 8 8 8 8 8 8 8 9 8 8 8 7 7 7 7 7 7 7 7 7 8 7 8 8 9 9 9 7 5 6 6 6 4 3 2 2 2 2
7 7 7 7 7 7 7 7 7 7 8 8 8 8 7 7 8 7 6 7 7 7 7 7 7 7 7 7 8 9 9 8 6 6 5 5 5 5 4 4 3 2 2
6 5 7 7 8 7 6 5 5 6 7 7 7 7 6 6 6 6 6 6 6 6 6 6 6 5 6 6 7 8 7 5 7 6 5 4 4 4 4 4 4 3 2
4 5 5 7 8 8 6 6 5 5 6 6 6 6 5 6 6 6 6 6 6 5 5 5 6 5 5 5 6 6 5 6 6 6 5 4 3 3 3 3 3 3 2
3 4 4 5 6 7 6 6 5 5 5 6 6 6 6 6 6 6 5 6 5 5 5 5 5 5 5 5 5 5 5 6 5 6 6 5 3 2 2 2 2 3 2
3 3 3 4 5 6 6 5 5 6 5 6 6 7 6 5 5 5 5 5 4 5 5 5 4 5 6 6 6 5 5 5 5 5 6 6 4 3 3 2 2 2 2
3 3 3 4 4 5 5 5 5 5 5 6 6 8 8 5 4 4 4 5 5 5 4 4 4 4 4 4 5 5 5 5 4 4 4 6 6 5 4 3 2 2 2
3 3 3 3 4 5 4 4 4 4 4 5 6 7 8 7 6 5 4 5 5 6 5 4 4 3 3 3 4 4 4 4 3 3 3 4 7 6 4 3 2 2 2
2 3 3 2 4 4 4 4 4 5 5 5 5 7 8 8 7 6 4 4 5 7 6 4 4 3 3 3 3 4 4 4 3 3 3 3 4 5 5 4 3 3 2
2 2 3 2 3 3 3 3 4 5 5 5 5 6 7 7 7 6 4 4 6 6 5 3 2 2 2 3 3 3 3 3 3 3 3 3 3 3 4 5 4 4 3
2 2 2 2 2 2 2 2 3 3 4 4 5 5 6 7 7 6 4 4 6 5 4 4 3 2 2 3 3 3 3 2 2 2 2 3 3 3 3 4 5 5 5
2 2 2 2 2 1 1 1 2 2 3 4 4 5 6 6 6 6 4 5 5 3 3 3 3 2 2 2 3 3 3 3 2 1 1 3 3 3 4 4 4 5 5
2 2 2 2 1 1 1 1 1 1 2 2 3 5 5 5 6 5 4 4 4 3 3 3 3 2 2 3 2 3 3 3 1 2 2 2 3 4 4 4 4 4 4
1 2 1 1 1 1 1 1 1 1 1 1 2 4 5 5 5 5 4 3 3 2 3 3 3 2 2 2 2 2 2 2 3 3 2 1 2 3 4 4 4 4 4
1 1 1 1 1 1 1 1 1 1 1 1 1 1 3 4 4 5 4 3 3 2 2 2 2 3 2 3 2 1 0 1 3 2 2 2 2 2 2 3 3 4 4
1 1 1 1 1 1 1 1 0 1 1 1 1 1 2 3 4 4 4 4 3 2 2 2 2 2 2 2 2 2 1 1 1 2 3 2 3 3 2 2 3 3 3
2 2 1 1 1 1 1 1 1 1 1 1 1 1 1 1 3 4 4 4 3 2 2 2 2 2 2 2 2 2 3 3 2 2 3 4 4 3 2 1 1 2 3
2 2 1 1 1 1 1 1 1 1 1 1 1 1 1 1 1 3 4 3 3 2 2 2 2 2 2 2 2 2 2 2 2 2 3 4 4 4 3 2 1 2 1
Wind_Direction
52 52 44 40 42 45 43 46 51 53 54 55 54 54 53 53 52 50 52 59 61 62 59 58 59 57 60 60 57 58 62 65 66 68 74 79 83 85 86 87 87 83 85
60 64 50 42 43 45 46 48 51 55 57 57 55 53 53 52 51 50 52 60 62 63 59 56 55 55 55 59 56 55 58 62 65 66 69 70 80 84 83 85 85 90 88
62 67 56 43 45 47 49 49 52 55 57 57 57 54 52 52 52 50 53 59 60 61 61 58 57 55 52 50 50 49 51 55 58 62 64 72 80 86 86 85 85 91 92
64 65 59 48 48 49 48 48 50 54 55 56 56 54 51 52 52 52 52 56 57 57 58 58 57 54 50 46 44 44 41 35 32 41 55 64 75 85 87 87 87 89 92
64 64 62 54 51 52 50 48 47 48 50 50 52 54 52 53 52 52 53 55 56 55 56 56 55 52 48 44 41 37 30 17 12 29 49 55 65 81 86 83 84 87 88
68 66 64 58 53 53 53 49 46 46 46 46 49 52 52 52 52 49 51 55 53 52 53 54 52 49 45 41 36 29 20 9 9 29 53 55 60 76 85 83 82 83 86
69 67 68 60 53 49 51 52 45 42 45 46 47 48 51 49 48 47 53 55 53 51 50 50 48 44 41 37 30 21 13 4 14 33 54 62 61 67 79 81 84 87 90
69 65 68 59 51 47 48 52 50 44 44 45 45 45 44 45 46 46 52 54 51 50 49 47 44 42 38 31 25 18 11 4 8 32 54 60 57 61 63 72 79 87 96
63 59 56 52 49 44 42 47 50 48 47 44 41 39 38 39 41 43 48 51 49 48 46 43 41 37 31 25 18 14 13 9 5 33 53 51 45 43 38 37 61 76 85
59 53 45 44 42 37 38 43 49 51 47 43 38 34 35 36 35 35 44 46 45 46 43 39 36 32 26 18 10 7 12 10 17 35 45 48 45 42 33 31 41 46 39
56 49 40 33 31 28 32 36 38 46 43 39 33 27 28 32 29 30 38 38 40 41 40 34 25 25 21 12 4 6 10 13 21 39 39 42 39 35 29 30 30 28 18
54 47 42 32 26 22 23 23 23 33 37 38 29 20 13 24 26 33 37 34 32 32 33 27 14 12 9 1 358 1 8 12 29 42 32 31 27 27 22 22 20 18 10
63 53 44 36 32 25 21 22 17 27 30 33 29 16 23 36 30 31 31 27 24 27 19 13 7 4 10 6 6 11 19 24 31 36 22 20 14 14 8 16 19 15 14
72 63 51 39 36 30 23 21 24 26 25 29 23 19 26 27 24 17 16 12 11 19 6 357 359 8 11 6 5 16 26 30 33 32 24 20 16 12 6 14 28 34 33
82 68 53 39 39 31 26 19 26 26 19 29 33 26 25 23 17 10 4 7 6 14 2 349 358 11 12 7 8 16 21 31 34 29 28 21 14 12 6 2 9 14 24
89 82 61 52 37 33 27 22 30 26 20 31 33 30 28 24 14 10 3 4 7 1 354 358 1 4 11 13 13 18 16 21 37 31 29 26 18 11 5 358 350 2 19
89 87 66 52 37 36 31 18 28 25 29 30 28 32 32 25 16 11 5 2 357 353 350 1 10 12 3 10 6 9 14 13 25 29 23 26 25 14 9 4 3 12 11
83 85 77 41 42 40 33 21 30 28 27 28 32 32 30 24 15 11 8 0 351 351 352 354 4 12 4 9 2 353 1 8 14 29 33 35 36 26 19 12 9 12 10
88 93 86 69 56 41 29 28 41 33 32 33 36 33 25 23 18 14 6 358 354 355 353 346 2 10 11 7 356 348 343 340 341 19 46 48 49 43 41 28 19 17 9
79 83 80 66 58 45 26 25 47 44 30 35 36 34 30 20 13 14 5 0 359 354 348 355 360 6 8 355 349 343 325 309 319 3 28 58 52 48 43 31 34 26 12
80 75 78 69 49 38 20 7 22 14 9 24 30 33 29 19 10 13 9 1 1 354 343 346 351 3 2 360 350 338 329 322 25 23 38 54 53 49 44 43 39 28 21
96 81 84 70 56 42 24 5 354 347 354 23 26 30 25 15 10 11 14 2 357 350 346 352 349 346 337 352 344 330 332 332 5 355 2 18 39 52 45 34 39 35 29
96 82 50 44 58 60 42 41 17 8 2 13 7 3 10 7 10 8 4 4 360 356 334 334 338 347 324 323 345 342 313 276 318 310 335 9 6 9 19 47 37 30 21
116 79 64 57 50 55 52 35 9 335 328 326 320 325 355 4 6 5 359 1 0 356 338 327 340 329 323 311 324 330 293 285 279 299 310 330 342 343 343 356 12 17 12
108 92 52 62 44 34 22 355 329 330 334 341 339 324 327 357 3 2 357 354 349 341 330 321 322 328 320 307 311 317 312 313 291 277 292 315 320 311 311 313 347 344 356
88 91 70 60 30 25 12 347 342 356 344 343 334 315 308 317 347 352 349 348 340 333 319 307 297 301 300 304 307 307 304 301 300 294 287 299 298 295 288 268 269 294 325
Height
1522 1521 1521 1521 1521 1520 1520 1520 1520 1520 1520 1521 1521 1521 1522 1522 1522 1522 1521 1521 1522 1522 1523 1523 1524 1524 1524 1524 1524 1525 1525 1525 1526 1526 1526 1526 1527 1527 1527 1528 1528 1529 1530
1522 1521 1521 1521 1520 1520 1520 1520 1519 1519 1520 1521 1521 1522 1522 1522 1522 1522 1521 1522 1522 1523 1523 1524 1524 1524 1525 1525 1525 1525 1525 1526 1526 1526 1527 1527 1528 1528 1528 1529 1529 1530 1530
1522 1521 1521 1521 1521 1521 1520 1520 1519 1519 1520 1521 1522 1522 1522 1523 1523 1522 1522 1522 1523 1523 1524 1524 1525 1525 1525 1525 1526 1526 1526 1526 1526 1527 1527 1528 1528 1529 1529 1529 1530 1530 1531
1522 1521 1521 1521 1521 1521 1521 1520 1520 1520 1521 1522 1522 1523 1523 1523 1523 1523 1523 1523 1523 1524 1524 1524 1525 1525 1525 1525 1526 1526 1526 1526 1527 1527 1527 1528 1528 1529 1529 1530 1530 1530 1531
1522 1521 1521 1522 1522 1521 1521 1521 1521 1521 1522 1522 1523 1523 1523 1523 1524 1524 1524 1524 1524 1524 1524 1524 1525 1525 1525 1525 1526 1526 1526 1526 1527 1527 1527 1528 1528 1529 1529 1530 1530 1530 1531
1522 1521 1522 1522 1522 1522 1522 1521 1521 1521 1522 1522 1523 1523 1523 1523 1524 1524 1524 1524 1524 1524 1524 1524 1524 1525 1525 1525 1525 1526 1526 1526 1527 1527 1527 1528 1528 1528 1529 1529 1530 1530 1531
1521 1521 1522 1522 1522 1522 1522 1521 1521 1521 1522 1522 1522 1523 1523 1523 1523 1524 1524 1524 1524 1524 1524 1524 1525 1524 1525 1525 1525 1525 1525 1526 1526 1526 1526 1527 1527 1528 1528 1529 1529 1530 1530
1521 1521 1521 1522 1522 1522 1522 1522 1521 1521 1522 1522 1522 1522 1523 1523 1523 1523 1523 1523 1523 1524 1524 1524 1524 1524 1524 1524 1524 1525 1525 1524 1525 1525 1525 1526 1526 1527 1527 1527 1528 1529 1529
1521 1521 1521 1521 1521 1522 1522 1522 1521 1521 1522 1522 1522 1522 1522 1522 1522 1522 1522 1523 1523 1523 1523 1523 1523 1523 1523 1523 1524 1524 1524 1524 1523 1524 1524 1524 1525 1525 1525 1526 1527 1527 1528
1521 1521 1521 1521 1521 1521 1521 1521 1521 1521 1521 1521 1521 1521 1521 1521 1521 1521 1522 1522 1522 1522 1522 1522 1522 1522 1522 1522 1522 1522 1522 1522 1522 1522 1523 1523 1523 1524 1524 1524 1525 1525 1527
1520 1520 1520 1520 1520 1520 1520 1521 1521 1520 1520 1520 1520 1520 1520 1520 1520 1520 1520 1521 1521 1521 1521 1521 1521 1521 1521 1521 1521 1521 1521 1521 1521 1521 1521 1521 1522 1522 1523 1523 1524 1524 1525
1519 1520 1519 1520 1519 1519 1519 1519 1519 1519 1519 1519 1519 1519 1519 1519 1519 1519 1519 1519 1519 1519 1519 1519 1519 1519 1519 1519 1519 1519 1519 1519 1519 1519 1520 1520 1520 1520 1521 1522 1522 1523 1523
1519 1519 1519 1519 1518 1518 1518 1518 1518 1518 1517 1517 1518 1518 1518 1518 1518 1517 1517 1517 1517 1517 1517 1517 1517 1517 1517 1517 1517 1517 1517 1517 1517 1517 1518 1518 1518 1519 1519 1520 1520 1521 1521
1518 1518 1518 1518 1517 1517 1517 1517 1516 1516 1516 1515 1516 1516 1516 1516 1516 1515 1515 1515 1515 1514 1515 1515 1515 1515 1515 1515 1515 1515 1515 1514 1515 1515 1515 1516 1516 1516 1517 1517 1518 1518 1519
1517 1517 1517 1516 1516 1516 1515 1515 1515 1515 1514 1514 1514 1514 1514 1514 1514 1514 1513 1513 1513 1512 1513 1513 1513 1513 1513 1513 1513 1512 1512 1512 1512 1512 1513 1513 1514 1514 1514 1515 1515 1515 1516
1515 1515 1515 1515 1514 1514 1514 1513 1513 1513 1513 1512 1512 1512 1512 1512 1512 1512 1512 1512 1511 1511 1511 1511 1511 1511 1510 1510 1510 1510 1510 1510 1510 1510 1510 1510 1511 1511 1512 1512 1512 1513 1513
1514 1513 1513 1513 1513 1512 1512 1512 1511 1511 1511 1510 1510 1510 1510 1510 1510 1509 1510 1509 1509 1508 1508 1508 1508 1508 1508 1508 1508 1508 1508 1507 1507 1507 1507 1508 1508 1508 1509 1509 1509 1510 1510
1512 1512 1511 1511 1511 1511 1510 1510 1510 1509 1509 1509 1508 1508 1508 1508 1507 1507 1507 1507 1507 1506 1506 1505 1505 1505 1505 1505 1505 1505 1505 1505 1505 1505 1505 1505 1505 1505 1506 1506 1506 1506 1507
1510 1510 1509 1509 1509 1509 1509 1508 1508 1508 1507 1507 1507 1506 1506 1506 1505 1505 1505 1505 1505 1505 1504 1503 1503 1503 1502 1502 1502 1502 1502 1502 1502 1502 1502 1502 1502 1503 1503 1503 1503 1503 1504
1509 1508 1508 1508 1507 1507 1507 1507 1506 1506 1505 1505 1505 1504 1504 1503 1503 1503 1503 1502 1502 1502 1502 1501 1501 1501 1500 1500 1500 1500 1500 1500 1500 1500 1500 1500 1500 1501 1501 1500 1500 1500 1500
1506 1506 1506 1506 1505 1505 1505 1504 1504 1503 1503 1503 1503 1502 1502 1501 1501 1501 1500 1500 1500 1500 1499 1499 1499 1498 1498 1498 1498 1497 1497 1498 1498 1498 1498 1498 1498 1498 1497 1497 1497 1497 1497
1504 1504 1504 1504 1503 1503 1503 1503 1502 1502 1501 1501 1501 1500 1500 1499 1499 1498 1498 1497 1497 1497 1497 1497 1496 1496 1496 1496 1497 1496 1496 1497 1496 1496 1496 1495 1495 1495 1495 1495 1494 1494 1494
1502 1502 1501 1501 1501 1501 1501 1501 1500 1500 1499 1499 1498 1498 1497 1497 1497 1496 1495 1495 1495 1494 1494 1494 1494 1494 1494 1494 1495 1496 1495 1494 1494 1493 1493 1493 1493 1492 1492 1492 1491 1491 1491
1500 1499 1499 1499 1499 1499 1499 1498 1497 1497 1496 1496 1496 1495 1495 1494 1494 1493 1493 1492 1492 1492 1492 1492 1492 1492 1492 1492 1492 1493 1495 1494 1493 1491 1491 1490 1490 1490 1489 1489 1489 1488 1488
1497 1497 1497 1497 1497 1497 1496 1496 1495 1495 1495 1494 1494 1493 1492 1492 1491 1491 1490 1489 1489 1489 1489 1489 1489 1489 1489 1490 1490 1490 1491 1491 1491 1490 1488 1487 1487 1487 1487 1487 1486 1485 1485
1494 1495 1495 1494 1494 1494 1494 1494 1493 1492 1492 1491 1491 1490 1489 1489 1488 1487 1487 1487 1486 1486 1486 1486 1486 1486 1487 1487 1487 1487 1487 1487 1487 1487 1486 1485 1484 1484 1484 1484 1483 1482 1482